Location: Devore Heights
(34.2372°N, 117.4156°W)
Time: 23:07:34
(UTC+00:00)

Transit 4A - Pass Details

Date: 13 September 2024
Orbit: 864 x 978 km, 66.8° (Epoch: 13 October)

Event Time Altitude Azimuth Distance (km) Brightness Sun altitude
Rises 09:32:35 0° 169° (S) 3,429 - -44.6°
Reaches altitude 10° 09:35:32 10° 155° (SSE) 2,501 - -44.2°
Maximum altitude 09:39:54 22° 105° (ESE) 1,793 - -43.6°
Exits shadow 09:42:40 16° 69° (ENE) 2,127 10.2 -43.2°
Drops below altitude 10° 09:44:19 10° 56° (NE) 2,546 10.8 -43.0°
Sets 09:47:20 0° 42° (NE) 3,507 11.7 -42.6°
